Regional Weather Roundup
Issued by NWS

Home | Current Version | Previous Version | Text Only | Print | Product List | Glossary On
Versions: 1 2 3 4 5 6 7 8 9 10 11 12 13 14 15 16 17 18 19 20 21 22 23 24 25 26 27 28 29 30 31 32 33 34 35 36 37 38 39 40 41 42 43 44 45 46 47 48 49 50
000
ASUS44 KJAN 111310
RWRMS

MISSISSIPPI HOURLY WEATHER ROUNDUP
NATIONAL WEATHER SERVICE JACKSON MS
700 AM CST THU FEB 11 2016

NOTE: "FAIR: INDICATES FEW OR NO CLOUDS BELOW 12,000 FEET WITH NO
SIGNIFICANT WEATHER AND/OR OBSTRUCTIONS TO VISIBILITY.

MSZ001>002-007>008-010>013-018>021-025>028-034>036-111400-
NORTHWEST MISSISSIPPI

CITY           SKY/WX    TMP DP  RH WIND       PRES   REMARKS
CLEVELAND      FAIR      38  37  95 S6        30.07R WCI  33
GREENWOOD      CLEAR     32  27  81 CALM      30.10R
GREENVILLE     CLEAR     36  31  82 S8        30.07S WCI  30
OLIVE BRANCH   PTCLDY    28  18  64 CALM      30.10S
OXFORD         FAIR      30  21  69 NE6       30.10R WCI  24
TUNICA         SUNNY     30  27  86 NE6       30.10R WCI  24
$$

MSZ003>006-009-014>017-022>024-029>033-037>039-111400-
NORTHEAST MISSISSIPPI

CITY           SKY/WX    TMP DP  RH WIND       PRES   REMARKS
COLUMBUS AFB   CLEAR     29  24  79 SE5       30.11R WCI  24
CORINTH        FAIR      28  16  59 CALM      30.12R
GOLDN TRIANGLE CLEAR     30  21  69 S6        30.10S WCI  24
STARKVILLE     FAIR      32  27  80 S3        30.12R
TUPELO         CLEAR     25  19  78 N7        30.11R WCI  17
$$

MSZ040-058-111400-
CENTRAL MISSISSIPPI

CITY           SKY/WX    TMP DP  RH WIND       PRES   REMARKS
JACKSON INTL   CLEAR     47  41  80 S9        30.10S
JACKSON HAWKNS CLEAR     47  41  80 SW6       30.11S
MERIDIAN KEY   CLEAR     35  30  82 S9        30.13F WCI  28
MERIDIAN NAS   CLEAR     44  34  67 SW10      30.11F
VICKSBURG      CLEAR     50  44  80 VRB6      30.11R
$$

MSZ059>079-111400-
SOUTH MISSISSIPPI

CITY           SKY/WX    TMP DP  RH WIND       PRES   REMARKS
BROOKHAVEN     FAIR      46  45  93 S8        30.16R
HATTIESBURG    CLEAR     43  35  73 S3        30.19S
MCCOMB         CLEAR     39  37  92 S5        30.17S
NATCHEZ        CLEAR     54  46  76 SW10G16   30.15S
PINE BELT      CLEAR     43  36  75 SW6       30.17S
$$

MSZ080>082-111400-
COASTAL MISSISSIPPI

CITY           SKY/WX    TMP DP  RH WIND       PRES   REMARKS
BAY ST LOUIS   CLEAR     36  32  87 CALM      30.32
BILOXI         CLEAR     49  48  95 SW9       30.21R
PASCAGOULA     CLEAR     39  38  96 CALM      30.23R
GULFPORT       CLEAR     41  38  89 CALM      30.21S
$$



USA.gov is the U.S. government's official web portal to all federal, state and local government web resources and services.